DW7574 Weather Reports


time (UTC)temp
F
wind
direction
speed
knots
gust
knots
rain 1hr
in
rain 24hr
in
rain mn
in
humidity
%
barometer
mb
20260503021543 46 205 0.0 0.0 0.00 0.00 0.00 63 1017.7
20260503020038 47 205 0.0 0.0 0.00 0.00 0.00 61 1017.5
20260503014533 48 205 0.0 0.0 0.00 0.00 0.00 61 1017.2
20260503013041 49 205 0.0 0.0 0.00 0.00 0.00 60 1017.1
20260503011532 49 205 0.0 0.0 0.00 0.00 0.00 60 1016.9
20260503010020 50 205 0.0 0.0 0.00 0.00 0.00 56 1016.7
20260503004516 50 205 0.0 0.0 0.00 0.00 0.00 55 1016.5
20260503003012 51 205 0.0 0.0 0.00 0.00 0.00 56 1016.3
20260503001512 51 204 0.0 0.0 0.00 0.00 0.00 55 1016.2
20260503000003 52 203 0.0 0.0 0.00 0.00 0.00 55 1016.0
20260502234602 52 203 0.0 0.0 0.00 0.00 0.00 55 1015.9
20260502233054 53 210 0.0 0.0 0.00 0.00 0.00 55 1015.7
20260502231550 54 239 0.0 0.0 0.00 0.00 0.00 54 1015.5
20260502230046 54 239 0.0 0.0 0.00 0.00 0.00 50 1015.5
20260502224542 55 239 0.0 0.9 0.00 0.00 0.00 50 1015.4
20260502223037 55 238 1.7 13.0 0.00 0.00 0.00 48 1015.4
20260502221532 55 330 0.0 0.0 0.00 0.00 0.00 52 1015.4
20260502220028 55 330 0.0 0.0 0.00 0.00 0.00 55 1015.3
20260502214534 55 330 0.0 3.5 0.00 0.00 0.00 50 1015.2
20260502213021 56 332 0.0 5.2 0.00 0.00 0.00 49 1015.2
20260502211524 57 339 0.0 6.1 0.00 0.00 0.00 49 1015.1
20260502210017 56 259 0.9 7.8 0.00 0.00 0.00 48 1015.1
20260502204506 55 351 0.0 0.0 0.00 0.00 0.00 53 1015.3
20260502203001 55 355 0.0 3.5 0.00 0.00 0.00 49 1015.3
20260502201611 55 355 0.0 7.0 0.00 0.00 0.00 47 1015.4
20260502200053 57 355 0.0 5.2 0.00 0.00 0.00 47 1015.4
20260502194552 57 29 0.0 6.1 0.00 0.00 0.00 48 1015.4
20260502193049 55 296 0.0 0.0 0.00 0.00 0.00 53 1015.8
20260502191540 57 296 0.0 6.1 0.00 0.00 0.00 48 1015.9
20260502190036 56 17 0.0 0.0 0.00 0.00 0.00 51 1016.0
20260502184534 55 346 0.0 1.7 0.00 0.00 0.00 51 1016.2
20260502183027 54 346 0.0 3.5 0.00 0.00 0.00 51 1016.2
20260502181521 54 355 0.0 4.3 0.00 0.00 0.00 51 1016.2
20260502163101 55 285 0.9 7.0 0.00 0.00 0.00 49 1016.7
20260502161552 55 90 0.0 9.6 0.00 0.00 0.00 48 1016.7
20260502151529 57 332 0.0 1.7 0.00 0.00 0.00 55 1017.1
20260502123043 39 321 0.0 0.0 0.00 0.00 0.00 100 1017.2
20260502121536 38 321 0.0 0.0 0.00 0.00 0.00 100 1017.0
20260502114537 0 0.0 0.0 0.00 0.00 0.00 1017.1
20260502113028 0 0.0 0.0 0.00 0.00 0.00 1017.0
20260502111518 0 0.0 0.0 0.00 0.00 0.00 1016.7
20260502110018 0 0.0 0.0 0.00 0.00 0.00 1016.6
20260502104510 0 0.0 0.0 0.00 0.00 0.00 1016.5
20260502103006 0 0.0 0.0 0.00 0.00 0.00 1016.4
20260502101501 0 0.0 0.0 0.00 0.00 0.00 1017.0
20260502100110 0 0.0 0.0 0.00 0.00 0.00 1016.9
20260502071508 0 0.0 0.0 0.00 0.00 0.00 1016.5
20260502070005 0 0.0 0.0 0.00 0.00 0.00 1016.5
20260502064622 0 0.0 0.0 0.00 0.00 0.00 1016.5
20260502063123 0 0.0 0.0 0.00 0.00 0.00 1016.6
20260502061552 0 0.0 0.0 0.00 0.00 0.00 1017.0
20260502060049 0 0.0 0.0 0.00 0.00 0.00 1017.1
20260502054543 0 0.0 0.0 0.00 0.00 0.00 1017.0
20260502053041 0 0.0 0.0 0.00 0.00 0.00 1017.2
20260502051536 0 0.0 0.0 0.00 0.00 0.00 1017.1
20260502050033 0 0.0 0.0 0.00 0.00 0.00 1017.3
20260502044526 0 0.0 0.0 0.00 0.00 0.00 1017.3
20260502043021 0 0.0 0.0 0.00 0.00 0.00 1017.3
20260502041521 0 0.0 0.0 0.00 0.00 0.00 1017.2
20260502040021 47 321 0.0 0.0 0.00 0.00 0.00 53 1017.2
20260502034507 48 321 0.0 0.0 0.00 0.00 0.00 54 1017.1
20260502033003 48 321 0.0 0.0 0.00 0.00 0.00 58 1017.2
20260502031558 49 321 0.0 0.0 0.00 0.00 0.00 59 1017.3
20260502030057 49 321 0.0 0.0 0.00 0.00 0.00 59 1017.3
20260502024549 50 321 0.0 0.0 0.00 0.00 0.00 59 1017.2
20260502023045 50 321 0.0 0.0 0.00 0.00 0.00 60 1017.2
20260502023009 50 321 0.0 0.0 0.00 0.00 0.00 60 1017.2